SCP
0 0 0 0 0 0 0 0 0 0 0 0 0 0 1 1 0 0 0 1 1 1 1 1 1 1 0 0 0 0 0 0 0 0 0 0 1 0 1 1 1 2 3 3
0 0 0 0 0 0 0 0 0 0 0 0 1 1 1 1 0 0 0 0 0 1 1 1 1 0 0 0 0 0 0 0 0 0 0 0 0 0 0 0 1 2 4 3
0 0 0 0 0 0 0 0 0 0 1 1 0 0 0 0 0 0 0 0 0 0 0 0 0 0 0 0 0 0 0 0 0 0 0 0 0 0 0 0 0 1 2 2
0 0 0 0 0 0 0 0 0 0 0 0 0 0 0 0 0 0 0 0 0 0 0 0 0 0 0 0 0 0 0 0 0 0 0 0 0 0 0 0 0 0 0 0
0 0 0 0 0 0 0 0 0 0 0 0 0 0 0 0 0 0 0 0 0 0 0 0 0 0 0 0 0 0 0 0 0 0 0 0 0 0 0 0 0 0 0 0
0 0 0 0 0 0 0 0 0 0 0 0 0 0 0 0 0 0 0 0 0 0 0 0 0 0 0 0 0 0 0 0 0 0 0 0 0 0 0 0 0 0 0 0
0 0 0 0 0 0 0 0 0 0 0 0 0 0 0 0 0 0 0 0 0 0 0 0 0 0 0 0 0 0 0 0 0 0 0 0 0 0 0 0 0 0 0 0
0 0 0 0 0 0 0 0 0 0 0 0 0 0 0 0 0 0 0 0 0 0 0 0 0 0 0 0 0 0 0 0 0 0 0 0 0 0 0 0 0 0 0 0
0 0 0 0 0 0 0 0 0 0 0 0 0 0 0 0 0 0 0 0 0 0 0 0 0 0 0 0 0 0 0 0 0 0 0 0 0 0 0 0 0 0 0 0
0 0 0 0 0 0 0 0 0 0 0 0 0 0 0 0 0 0 0 0 0 0 0 0 0 0 0 0 0 0 0 0 0 0 0 0 0 0 0 0 0 0 0 0
0 0 0 0 0 0 0 0 0 0 0 0 0 0 0 0 0 0 0 0 0 0 0 0 0 0 0 0 0 0 0 0 0 0 0 0 0 0 0 0 0 0 0 0
0 0 0 0 0 0 0 0 0 0 0 0 0 0 0 0 0 0 0 0 0 0 0 0 0 0 0 0 0 0 0 0 0 0 0 0 0 0 0 0 0 0 0 0
0 0 0 0 0 0 0 0 0 0 0 0 0 0 0 0 0 0 0 0 0 0 0 0 0 0 0 0 0 0 0 0 0 0 0 0 0 0 0 0 0 0 0 0
0 0 0 0 0 0 0 0 0 0 0 0 0 0 0 0 0 0 0 0 0 0 0 0 0 0 0 0 0 0 0 0 0 0 0 0 0 0 0 0 0 0 0 0
0 0 0 0 0 0 0 0 0 0 0 0 0 0 0 0 0 0 0 0 0 0 0 0 0 0 0 0 0 0 0 0 0 0 0 0 0 0 0 0 0 0 0 0
0 0 0 0 0 0 0 0 0 0 0 0 0 0 0 0 0 0 0 0 0 0 0 0 0 0 0 0 0 0 0 0 0 0 0 0 0 0 0 0 0 0 0 0
0 0 0 0 0 0 0 0 0 0 0 0 0 0 0 0 0 0 0 0 0 0 0 0 0 0 0 0 0 0 0 0 0 0 0 0 0 0 0 0 0 0 0 0
0 0 0 0 0 0 0 0 0 0 0 0 0 0 0 0 0 0 0 0 0 0 0 0 0 0 0 0 0 0 0 0 0 0 0 0 0 0 0 0 0 0 0 0
0 0 0 0 0 0 0 0 0 0 0 0 0 0 0 0 0 0 0 0 0 0 0 0 0 0 0 0 0 0 0 0 0 0 0 0 0 0 0 0 0 0 0 0
0 0 0 0 0 0 0 0 0 0 0 0 0 0 0 0 0 0 0 0 0 0 0 0 0 0 0 0 0 0 0 0 0 0 0 0 0 0 0 0 0 0 0 0
0 0 0 0 0 0 0 0 0 0 0 0 0 0 0 0 0 0 0 0 0 0 0 0 0 0 0 0 0 0 0 0 0 0 0 0 0 0 0 0 0 0 0 0
0 0 0 0 0 0 0 0 0 0 0 0 0 0 0 0 0 0 0 0 0 0 0 0 0 0 0 0 0 0 0 0 0 0 0 0 0 0 0 0 0 0 0 0
0 0 0 0 0 0 0 0 0 0 0 0 0 0 0 0 0 0 0 0 0 0 0 0 0 0 0 0 0 0 0 0 0 0 0 0 0 0 0 0 0 0 0 0
0 0 0 0 0 0 0 0 0 0 0 0 0 0 0 0 0 0 0 0 0 0 0 0 0 0 0 0 0 0 0 0 0 0 0 0 0 0 0 0 0 0 0 0
0 0 0 0 0 0 0 0 0 0 0 0 0 0 0 0 0 0 0 0 0 0 0 0 0 0 0 0 0 0 0 0 0 0 0 0 0 0 0 0 0 0 0 0
0 0 0 0 0 0 0 0 0 0 0 0 0 0 0 0 0 0 0 0 0 0 0 0 0 0 0 0 0 0 0 0 0 0 0 0 0 0 0 0 0 0 0 0
Wind_Speed
3 4 2 6 7 6 3 3 2 2 5 9 13 12 10 8 10 11 10 9 9 7 6 7 7 8 7 6 6 6 6 6 5 3 3 3 2 2 4 4 6 6 7 6
5 2 6 5 4 5 4 3 1 4 7 8 10 12 8 9 9 8 8 8 7 7 8 9 9 9 8 7 6 5 6 6 5 3 2 1 1 3 3 4 4 5 5 6
2 5 3 2 1 1 1 3 3 4 5 5 7 6 5 5 7 7 8 7 6 6 7 7 7 6 6 6 5 5 5 5 5 5 3 2 2 2 2 3 3 3 3 4
4 4 3 3 1 1 4 3 2 3 6 2 3 3 0 1 3 4 4 4 4 4 4 4 5 6 5 5 4 4 4 4 4 4 3 3 2 1 2 3 3 4 4 2
5 3 2 2 3 1 3 3 4 3 5 4 5 5 1 1 1 1 1 1 1 2 4 5 5 6 6 6 5 4 4 4 3 3 2 2 1 1 2 2 4 4 5 5
5 3 2 3 3 1 1 5 5 5 6 4 3 2 2 2 2 2 2 1 1 2 4 5 6 6 7 7 6 5 5 4 4 3 2 0 0 1 1 2 3 3 2 3
8 7 3 2 4 4 6 7 6 7 6 2 2 2 1 1 2 3 3 1 1 3 4 6 7 7 8 8 8 7 6 6 5 5 4 4 3 3 2 2 2 2 2 2
4 8 6 5 2 2 3 6 6 3 3 3 3 1 1 2 4 5 3 1 1 3 5 6 7 7 8 8 8 8 8 8 7 6 6 5 5 3 3 4 3 3 2 3
1 6 5 4 3 2 3 4 3 6 2 1 2 2 2 4 5 4 3 2 4 5 7 7 7 6 7 8 9 8 9 9 9 8 7 7 7 6 6 6 5 4 4 4
3 3 6 7 7 9 5 5 5 4 2 2 3 2 3 4 3 3 4 5 6 7 8 8 7 7 7 7 8 8 8 9 10 9 8 8 8 8 8 6 7 7 6 5
3 2 6 6 7 7 7 6 6 4 3 3 2 1 3 1 2 2 4 5 7 8 9 8 8 7 8 9 9 9 9 9 10 10 10 10 10 9 8 7 8 8 7 6
3 5 2 3 3 3 5 4 3 3 1 2 1 3 2 1 1 2 5 7 8 9 9 9 8 8 9 10 11 11 10 10 11 11 10 10 11 10 9 10 11 9 9 8
4 6 4 6 7 7 7 5 4 5 5 2 0 5 1 2 3 5 7 9 9 9 9 9 9 9 10 10 11 11 11 12 12 11 10 11 11 11 12 13 12 11 10 10
6 6 4 3 3 0 3 5 4 5 3 1 4 6 2 5 7 9 9 9 9 9 9 9 9 9 10 9 9 10 11 11 11 11 11 12 12 12 13 12 12 12 11 11
6 5 3 2 2 4 3 2 3 3 2 4 6 5 5 6 8 9 9 9 10 10 10 10 9 9 8 8 8 9 9 9 10 11 12 12 12 12 12 12 12 11 11 12
5 5 2 2 3 5 3 2 1 1 1 2 3 5 6 6 6 8 10 11 10 10 10 10 10 10 9 9 9 9 9 10 10 11 12 12 12 12 12 12 12 11 11 10
3 5 4 2 3 3 2 2 2 2 3 4 5 7 8 9 8 9 10 9 10 11 12 12 11 11 11 11 11 10 10 10 10 12 12 12 12 12 12 13 12 11 10 9
6 5 4 2 2 3 5 2 2 3 5 5 6 8 8 11 9 9 9 7 9 11 10 11 11 11 12 11 11 11 11 11 12 13 13 12 12 13 12 11 11 11 9 7
4 7 4 3 0 4 2 2 2 3 7 6 6 8 8 8 7 6 6 5 8 9 11 11 12 13 11 11 11 12 12 12 13 14 13 13 13 13 13 12 11 9 8 7
6 6 6 4 1 5 6 3 1 2 6 5 5 7 7 6 6 7 6 8 10 11 10 11 11 11 11 11 11 12 14 14 14 14 14 14 13 13 13 12 10 8 7 7
3 5 4 3 3 7 5 2 3 2 7 3 4 6 6 5 7 8 10 9 9 11 12 12 12 11 11 11 11 13 14 14 15 15 15 14 12 12 12 10 8 8 7 7
5 4 3 4 2 7 4 5 6 9 4 3 4 5 6 7 8 8 9 10 11 11 11 11 11 12 11 10 10 14 14 15 15 15 14 13 12 11 9 8 7 7 6 6
6 8 7 9 8 6 5 8 6 5 4 4 5 6 5 6 6 8 8 9 10 11 11 11 11 13 12 10 10 13 15 15 15 14 13 12 12 9 8 8 8 6 5 5
3 3 4 3 7 6 6 4 3 5 6 5 5 5 4 5 7 9 9 9 10 9 11 11 12 13 13 12 12 12 14 14 14 14 12 10 10 9 7 6 5 5 5 5
6 6 3 5 5 3 7 7 6 5 5 5 5 4 5 6 8 8 8 10 10 10 10 10 11 13 14 13 14 13 12 13 14 13 10 9 8 8 7 6 5 5 5 5
6 9 9 9 8 8 8 8 8 7 7 7 6 5 4 5 7 7 8 8 9 11 11 11 12 13 14 14 14 12 11 12 13 11 9 7 7 6 6 6 6 5 5 5
Wind_Direction
45 68 277 247 213 220 244 261 278 127 130 73 80 74 50 40 49 54 53 53 51 38 16 16 13 13 12 6 1 349 349 346 344 339 346 355 8 306 286 268 256 248 237 216
35 292 251 254 223 210 220 252 248 93 118 104 98 79 57 43 43 43 45 42 38 27 18 13 7 6 3 357 356 358 355 348 340 321 294 289 283 261 267 273 262 248 234 220
233 255 296 331 14 35 273 216 230 154 104 104 116 75 49 52 55 49 39 30 23 26 12 357 349 344 343 348 353 352 345 348 352 343 320 295 278 287 314 319 317 304 264 228
279 285 331 339 333 55 301 296 256 157 136 155 173 119 87 70 56 53 40 27 8 357 342 329 325 326 326 321 326 328 326 335 349 3 21 23 20 4 345 325 330 335 343 328
280 286 309 293 265 228 245 44 61 74 113 84 35 105 202 203 98 84 84 62 344 317 304 303 303 303 301 301 301 296 302 314 329 354 24 54 50 331 296 314 343 358 5 17
262 277 238 262 298 281 119 72 53 54 68 57 334 105 190 212 174 133 120 118 271 281 284 288 287 287 287 287 285 280 285 288 290 298 303 223 190 284 320 330 337 341 342 359
335 330 323 309 332 360 59 69 25 5 14 286 316 80 226 172 106 116 123 146 253 268 273 278 280 279 279 282 281 280 280 280 277 274 268 257 248 247 253 263 280 298 310 309
353 318 331 353 349 321 50 114 141 207 235 283 356 4 291 84 86 91 102 124 295 293 285 281 283 285 289 293 291 286 279 276 274 266 262 257 253 251 253 253 250 254 253 260
294 290 320 352 355 66 72 68 139 128 129 14 322 321 360 82 71 73 59 12 333 315 307 301 303 305 302 300 296 287 280 276 274 267 260 256 248 240 241 245 245 246 246 250
161 286 318 323 19 24 76 119 77 85 107 333 328 12 353 359 34 37 15 347 324 316 313 312 310 305 303 300 298 297 282 272 272 271 263 259 249 241 238 236 239 240 244 245
100 93 337 21 30 346 15 39 73 87 112 131 302 327 356 20 47 16 331 314 307 306 306 304 298 293 296 299 298 294 287 279 276 272 267 262 260 253 242 237 240 240 241 239
100 103 28 334 334 4 69 53 83 100 45 93 172 267 321 95 48 313 299 296 297 300 303 300 294 294 298 298 297 294 289 282 275 271 268 264 262 259 252 246 245 238 235 234
114 88 52 358 348 10 34 23 65 91 92 89 296 265 235 350 315 294 288 291 295 301 305 302 298 296 297 297 298 299 297 294 292 290 283 277 270 262 255 250 246 239 232 232
96 82 127 173 241 63 51 19 39 84 94 258 239 256 272 318 306 298 294 291 294 299 300 298 295 292 292 294 297 298 298 299 301 299 294 287 281 273 267 259 250 241 233 228
82 86 71 58 72 103 97 71 63 94 168 212 262 263 257 278 285 287 289 294 301 300 298 296 294 293 293 295 296 296 296 299 301 301 299 294 291 287 280 273 263 252 240 232
66 110 106 65 69 93 83 37 40 83 250 249 279 273 256 283 295 289 288 293 297 299 304 304 302 302 303 303 303 302 299 298 297 296 295 294 293 291 287 282 275 265 251 237
84 120 118 197 220 338 274 222 218 225 226 213 235 255 286 297 292 282 287 300 301 305 306 305 305 306 308 307 305 302 297 299 298 296 295 295 293 291 289 288 284 273 259 242
123 105 114 119 81 254 254 234 201 210 225 215 233 259 275 271 275 278 282 289 292 295 299 303 306 308 305 301 301 300 303 304 303 300 297 296 295 294 292 287 282 275 266 251
120 127 109 102 251 288 250 211 174 207 254 222 240 266 275 291 315 295 279 286 286 295 302 305 305 305 304 305 307 310 311 309 306 303 299 297 294 292 290 287 282 277 267 256
60 81 102 113 180 252 243 211 199 160 279 230 235 270 286 319 326 287 296 311 304 304 303 303 302 303 307 310 313 315 315 311 307 304 300 296 291 289 286 282 280 274 265 255
41 45 88 151 227 263 240 187 97 191 259 236 237 263 277 258 241 272 301 301 296 296 301 303 305 310 311 313 318 317 314 312 308 305 301 298 291 288 283 279 275 271 263 251
165 153 183 161 215 266 202 148 188 221 235 247 255 262 266 265 273 286 293 295 301 305 306 309 310 312 313 315 318 317 314 311 309 307 305 303 297 293 291 281 276 269 262 247
189 187 187 187 211 239 202 201 211 183 208 239 247 263 272 278 283 289 289 294 299 302 307 312 312 313 314 315 316 315 314 313 313 312 312 309 307 300 291 283 278 271 255 245
244 145 151 237 258 241 231 229 216 195 212 239 252 268 268 270 277 285 289 295 303 305 311 314 315 316 317 318 317 312 313 315 315 316 318 317 316 312 305 293 278 267 254 244
222 170 188 245 267 259 252 230 218 215 228 252 264 258 256 263 275 281 292 300 305 309 310 313 315 314 315 317 317 317 318 319 320 320 320 320 320 320 315 309 293 279 259 246
196 178 177 218 215 194 232 222 198 205 227 237 246 257 257 256 272 288 295 297 302 308 312 316 317 316 316 316 315 317 320 322 322 322 324 322 321 323 322 321 319 300 280 267